FW9620 Weather Reports


time (UTC)temp
F
wind
direction
speed
knots
gust
knots
rain 1hr
in
rain 24hr
in
rain mn
in
humidity
%
barometer
mb
20260906171601 98 100 4.3 8.7 0.00 0.00 0.00 43 1015.6
20260906170109 98 53 1.7 7.0 0.00 0.00 0.00 44 1015.9
20260906164601 97 37 2.6 9.6 0.00 0.00 0.00 45 1016.0
20260906163058 96 89 5.2 9.6 0.00 0.00 0.00 47 1016.0
20260906161601 95 50 3.5 9.6 0.00 0.00 0.00 49 1016.1
20260906160058 94 9 4.3 8.7 0.00 0.00 0.00 50 1016.2
20260906154553 93 105 3.5 7.8 0.00 0.00 0.00 52 1016.1
20260906153102 92 134 2.6 7.0 0.00 0.00 0.00 54 1016.1
20260906151601 92 39 3.5 5.2 0.00 0.00 0.00 53 1016.0
20260906150125 91 95 4.3 7.8 0.00 0.00 0.00 55 1015.9
20260906144556 89 101 3.5 8.7 0.00 0.00 0.00 58 1015.8
20260906143055 88 65 2.6 6.1 0.00 0.00 0.00 61 1015.7
20260906141559 86 143 4.3 7.0 0.00 0.00 0.00 62 1015.8
20260906140100 84 86 3.5 7.0 0.00 0.00 0.00 66 1015.8
20260906134556 82 63 2.6 5.2 0.00 0.00 0.00 70 1015.7
20260906133109 79 61 1.7 4.3 0.00 0.00 0.00 74 1015.7
20260906131604 78 46 1.7 4.3 0.00 0.00 0.00 77 1015.5
20260906130110 76 32 1.7 2.6 0.00 0.00 0.00 80 1015.4
20260906124558 74 0 0.0 0.0 0.00 0.00 0.00 82 1015.3
20260906123056 73 0 0.0 0.0 0.00 0.00 0.00 84 1015.3
20260906121601 72 0 0.0 0.0 0.00 0.00 0.00 84 1015.0
20260906120057 72 0 0.0 0.0 0.00 0.00 0.00 84 1015.0
20260906114552 72 0 0.0 1.7 0.00 0.00 0.00 83 1015.0
20260906113104 72 32 1.7 3.5 0.00 0.00 0.00 83 1014.9
20260906111559 72 0 0.0 0.0 0.00 0.00 0.00 82 1014.5
20260906110100 72 0 0.0 0.0 0.00 0.00 0.00 82 1014.6
20260906104555 73 0 0.0 0.0 0.00 0.00 0.00 82 1014.7
20260906103102 73 0 0.0 0.0 0.00 0.00 0.00 81 1014.7
20260906101601 73 0 0.0 0.0 0.00 0.00 0.00 81 1014.6
20260906100058 73 0 0.0 0.0 0.00 0.00 0.00 81 1014.6
20260906094607 74 0 0.0 0.0 0.00 0.00 0.00 80 1014.3
20260906093112 74 0 0.0 0.0 0.00 0.00 0.00 80 1014.1
20260906091557 74 0 0.0 0.0 0.00 0.00 0.00 80 1014.0
20260906090136 74 0 0.0 0.0 0.00 0.00 0.00 80 1014.0
20260906084620 74 0 0.0 0.0 0.00 0.00 0.00 79 1013.9
20260906083100 74 0 0.0 0.0 0.00 0.00 0.00 78 1013.8
20260906081604 75 0 0.0 0.0 0.00 0.00 0.00 78 1013.7
20260906080106 75 0 0.0 0.0 0.00 0.00 0.00 77 1013.7
20260906074604 76 0 0.0 0.0 0.00 0.00 0.00 76 1013.8
20260906073059 77 0 0.0 0.0 0.00 0.00 0.00 74 1013.9
20260906071602 77 0 0.0 0.0 0.00 0.00 0.00 73 1013.9
20260906070103 77 0 0.0 0.0 0.00 0.00 0.00 72 1014.1
20260906064556 77 0 0.0 0.0 0.00 0.00 0.00 73 1014.2
20260906063104 78 0 0.0 0.0 0.00 0.00 0.00 72 1014.3
20260906061607 77 0 0.0 0.0 0.00 0.00 0.00 73 1014.3
20260906054607 77 0 0.0 0.0 0.00 0.00 0.00 73 1014.3
20260906053118 77 0 0.0 0.0 0.00 0.00 0.00 74 1014.4
20260906051601 78 0 0.0 0.0 0.00 0.00 0.00 73 1014.3
20260906050104 78 0 0.0 0.0 0.00 0.00 0.00 72 1014.2
20260906044606 78 0 0.0 0.0 0.00 0.00 0.00 73 1014.4
20260906043102 78 0 0.0 1.7 0.00 0.00 0.00 72 1014.5
20260906041559 79 0 0.0 0.9 0.00 0.00 0.00 70 1014.5
20260906040105 79 0 0.0 1.7 0.00 0.00 0.00 70 1014.3
20260906034600 80 0 0.0 0.0 0.00 0.00 0.00 68 1014.2
20260906033100 81 0 0.0 2.6 0.00 0.00 0.00 66 1014.1
20260906031600 81 75 0.9 2.6 0.00 0.00 0.00 67 1014.0
20260906030056 82 31 0.9 2.6 0.00 0.00 0.00 64 1013.9
20260906024622 82 0 0.0 1.7 0.00 0.00 0.00 63 1013.8
20260906023105 83 58 0.9 2.6 0.00 0.00 0.00 61 1013.6
20260906021600 85 58 1.7 2.6 0.00 0.00 0.00 60 1013.5
20260906020055 85 46 1.7 3.5 0.00 0.00 0.00 58 1013.3
20260906014559 87 74 0.9 3.5 0.00 0.00 0.00 56 1013.1
20260906013055 89 0 0.0 0.0 0.00 0.00 0.00 54 1013.0
20260906011601 89 0 0.9 2.6 0.00 0.00 0.00 52 1012.9
20260906010127 90 94 1.7 6.1 0.00 0.00 0.00 51 1012.8
20260906004601 92 121 2.6 8.7 0.00 0.00 0.00 48 1012.5
20260906003054 94 124 4.3 7.8 0.00 0.00 0.00 47 1012.7
20260906001604 95 26 2.6 10.4 0.00 0.00 0.00 45 1012.4
20260906000100 95 40 0.9 3.5 0.00 0.00 0.00 44 1012.6
20260905234558 95 64 0.0 1.7 0.00 0.00 0.00 44 1012.2
20260905233057 95 64 0.9 2.6 0.00 0.00 0.00 44 1012.2
20260905231600 96 64 0.9 2.6 0.00 0.00 0.00 42 1012.4
20260905230113 97 36 1.7 7.0 0.00 0.00 0.00 41 1012.4
20260905224601 99 19 2.6 7.0 0.00 0.00 0.00 37 1012.2
20260905223101 100 360 1.7 5.2 0.00 0.00 0.00 37 1012.1
20260905221557 99 25 3.5 9.6 0.00 0.00 0.00 38 1012.2
20260905220104 98 67 1.7 4.3 0.00 0.00 0.00 40 1012.5
20260905214557 98 5 2.6 7.0 0.00 0.00 0.00 40 1012.5
20260905213057 98 347 2.6 11.3 0.00 0.00 0.00 40 1012.7
20260905211606 102 345 6.1 12.2 0.00 0.00 0.00 36 1012.7
20260905210104 103 207 0.0 7.0 0.00 0.00 0.00 34 1012.8
20260905204605 101 100 0.0 7.8 0.00 0.00 0.00 36 1013.0
20260905203059 100 9 4.3 8.7 0.00 0.00 0.00 36 1013.2
20260905201609 100 9 3.5 8.7 0.00 0.00 0.00 38 1013.4
20260905200059 101 355 5.2 12.2 0.00 0.00 0.00 37 1013.4
20260905194555 100 216 2.6 7.0 0.00 0.00 0.00 37 1013.6
20260905193055 101 19 2.6 7.0 0.00 0.00 0.00 36 1013.8
20260905191601 101 120 4.3 8.7 0.00 0.00 0.00 36 1014.0
20260905190104 101 226 1.7 7.8 0.00 0.00 0.00 38 1014.1
20260905184612 100 355 1.7 8.7 0.00 0.00 0.00 39 1014.5
20260905183115 100 319 4.3 8.7 0.00 0.00 0.00 39 1014.7
20260905181603 101 11 4.3 8.7 0.00 0.00 0.00 39 1014.9
20260905180104 100 0 0.0 7.0 0.00 0.00 0.00 40 1015.1
20260905174605 98 30 5.2 10.4 0.00 0.00 0.00 41 1015.5
20260905173115 96 77 0.9 3.5 0.00 0.00 0.00 44 1015.5